Location: Casteau
(50.5142°N, 4.0161°E)
Time: 01:15:28
(UTC+00:00)

S-56A Canister/Altair - Pass Details

Date: 05 August 2021
Orbit: 632 x 2500 km, 38.9° (Epoch: 16 September)

Event Time Altitude Azimuth Distance (km) Brightness Sun altitude
Rises 12:54:04 0° 219° (SW) 4,998 12.2 53.9°
Reaches altitude 10° 12:57:22 10° 211° (SSW) 4,251 12.1 53.7°
Maximum altitude 13:07:56 37° 150° (SSE) 3,174 11.5 52.8°
Drops below altitude 10° 13:20:45 10° 92° (E) 5,164 11.6 51.7°
Sets 13:25:14 0° 85° (E) 6,170 11.9 51.3°
